Location: Hamburg
(53.5554°N, 9.9941°E)
Time: 02:49:14
(UTC+02:00)

ISS - Pass Details

Date: 14 May 2021
Orbit: 417 x 422 km, 51.6° (Epoch: 15 June)

Event Time Altitude Azimuth Distance (km) Brightness Sun altitude
Exits shadow 02:50:38 - 270° (W) 1,634 -1.0 -15.0°
Reaches altitude 10° 02:50:57 10° 269° (W) 1,508 -1.2 -15.0°
Maximum altitude 02:54:16 54° 191° (SSW) 517 -3.7 -14.8°
Drops below altitude 10° 02:57:35 10° 113° (ESE) 1,508 -0.9 -14.6°
Sets 02:59:43 0° 109° (ESE) 2,372 0.1 -14.4°
